Location: Csohesd
(46.2500°N, 22.6167°E)
Time: 03:09:22
(UTC+00:00)

HJ-1C - Pass Details

Date: 21 October 2021
Orbit: 423 x 433 km, 97.1° (Epoch: 30 November)

Event Time Altitude Azimuth Distance (km) Brightness Sun altitude
Exits shadow 16:57:47 33° 110° (ESE) 733 3.9 -15.4°
Maximum altitude 16:58:35 40° 73° (ENE) 640 3.7 -15.6°
Drops below altitude 10° 17:01:41 10° 2° (N) 1,530 6.1 -16.1°
Sets 17:03:46 0° 355° (N) 2,404 7.2 -16.5°
